Погода в Найдёновке

Россия / Республика Крым     45°16′20″N   34°27′01″E
темп.,
°C
ветер,
м/с
пор.,
м/с
влажн.,
%
обл.,
%
осадки,
мм/ч
давл.,
гПа
погр.,
м
17 сентября, пт
пт1700:00+14з11420 0.0 101811
03:00+13юз22460 0.0 101812
06:00+13юз11510 0.0 101811
09:00+19зсз01372 0.0 1017284
12:00+23ссв21260 0.0 10161430
15:00+25с11230 0.0 10151872
18:00+21в5538100 0.0 1015310
21:00+16ю23529 0.0 101537
18 сентября, сб
сб1800:00+16ююз33565 0.0 101437
03:00+15ююз2261100 0.0 101417
06:00+15юв2254100 0.0 101315
09:00+20юв2338100 0.0 1012315
12:00+24юз122795 0.0 10111185
15:00+22юз1133100 0.0 101153
18:00+20юв464797 0.0 1010241
21:00+18ю246394 0.1 101094
19 сентября, вс
вс1900:00+17ю236735 0.1 101055
03:00+16ююз2276100 0.1 101011
06:00+16ю117196 0.1 101011
09:00+21зюз35605 0.2 1011702
12:00+25з45443 0.0 10101481
15:00+27з67315 0.0 10102259
18:00+23з67414 0.0 1010681
21:00+17зюз36754 0.0 1011146
20 сентября, пн
пн2000:00+16юз34880 0.0 101161
03:00+15зюз338844 0.0 101154
06:00+15ююз2282100 0.0 101132
09:00+21з1250100 0.0 1011404
12:00+18зсз5774100 0.7 1013559
15:00+15зсз238871 3.3 1014286
18:00+17зсз347524 0.0 1014632
21:00+13з36755 0.0 1017127
21 сентября, вт
вт2100:00+12зюз33796 0.0 101846
03:00+11зюз227999 0.0 101812
06:00+11юв117799 0.0 101910
09:00+15в2257100 0.0 1018263
12:00+20в3338100 0.0 1016954
15:00+21св3339100 0.0 1015819
18:00+18зюз465198 0.0 1014448
21:00+15сз4783100 1.3 1016503